• Join FlightAware (Why Join?)
  • Login
  • US Flag 
12:17PM EDT


 

Airport Tracker/Info


-or-


 

Live Flight TrackerFlight Track Log ✈ N877PM ✈ 15-Dec-2013 ✈ KCID - KUMP

Flight Track Log - Related Links

Times and Time Zones

All times are in EST time to prevent confusion due to time zone crossing. See the N877PM flight status page for this flight to view local times or setup timezone preferences in your user account.

Time Position Orientation Groundspeed Altitude Reporting Facility
EST Latitude Longitude Course Direction KTS MPH feet Rate Location/Type
09:57AM 41.8592 -91.7478 124° Southeast 177 204 3,800  Level Chicago Center
09:58AM 41.8214 -91.6736 124° Southeast 229 264 6,700 3,000 Climbing Chicago Center
09:59AM 41.7953 -91.5989 115° Southeast 226 260 10,000 2,760 Climbing Chicago Center
10:00AM 41.7694 -91.5156 113° Southeast 235 270 12,400 2,340 Climbing Chicago Center
10:01AM 41.7431 -91.4272 112° Southeast 252 290 14,900 2,220 Climbing Chicago Center
10:02AM 41.7139 -91.3367 113° Southeast 264 304 17,000 1,800 Climbing Chicago Center
10:03AM 41.6847 -91.2411 112° Southeast 278 320 18,600 1,560 Climbing Chicago Center
10:04AM 41.6533 -91.1397 112° Southeast 293 337 20,300 1,560 Climbing Chicago Center
10:05AM 41.6206 -91.0378 113° Southeast 301 346 21,900 1,800 Climbing Chicago Center
10:06AM 41.5747 -90.9128 116° Southeast 319 367 24,000 1,800 Climbing Chicago Center
10:07AM 41.5164 -90.8242 131° Southeast 329 379 25,700 1,680 Climbing Chicago Center
10:08AM 41.4489 -90.7364 136° Southeast 337 388 27,500 1,620 Climbing Chicago Center
10:09AM 41.3733 -90.6608 143° Southeast 341 392 29,100 1,440 Climbing Chicago Center
10:10AM 41.3003 -90.5833 141° Southeast 359 413 30,500 900 Climbing Chicago Center
10:11AM 41.2631 -90.4608 112° Southeast 358 412 31,000 240 Climbing Chicago Center
10:12AM 41.2228 -90.3194 111° Southeast 392 451 31,000  Level Chicago Center
10:13AM 41.1806 -90.1733 111° Southeast 415 478 31,000  Level Chicago Center
10:14AM 41.1297 -89.9953 111° Southeast 424 488 31,000  Level Chicago Center
10:15AM 41.0864 -89.8497 112° Southeast 422 486 31,000  Level Chicago Center
10:17AM 41.0425 -89.7033 112° Southeast 423 487 31,000  Level Chicago Center
10:18AM 41.0014 -89.5600 111° Southeast 416 479 31,000  Level Chicago Center
10:19AM 40.9592 -89.4181 111° Southeast 412 474 31,000  Level Chicago Center
10:20AM 40.9164 -89.2764 112° Southeast 413 475 31,000  Level Chicago Center
10:21AM 40.8739 -89.1336 111° Southeast 414 476 31,000  Level Chicago Center
10:22AM 40.8311 -88.9908 112° Southeast 417 480 31,000  Level Chicago Center
10:23AM 40.7842 -88.8369 112° Southeast 419 482 31,000  Level Chicago Center
10:24AM 40.7408 -88.6956 112° Southeast 420 483 31,000 -660 Level Chicago Center
10:25AM 40.6983 -88.5567 112° Southeast 413 475 29,700 -1,440 Descending Chicago Center
10:26AM 40.6567 -88.4192 112° Southeast 409 471 28,100 -1,620 Descending Chicago Center
10:27AM 40.6142 -88.2817 112° Southeast 409 471 26,400 -1,860 Descending Chicago Center
10:28AM 40.5633 -88.1197 112° Southeast 403 464 24,300 -1,200 Descending Chicago Center
10:29AM 40.5228 -87.9861 112° Southeast 398 458 24,000 -180 Descending Chicago Center
10:30AM 40.4803 -87.8544 113° Southeast 395 455 24,000 -420 Level Chicago Center
10:31AM 40.4386 -87.7222 112° Southeast 394 453 23,200 -1,320 Descending Chicago Center
10:32AM 40.3928 -87.5856 114° Southeast 400 460 21,400 -1,800 Descending Chicago Center
10:33AM 40.3511 -87.4506 112° Southeast 404 465 19,600 -1,860 Descending Chicago Center
10:34AM 40.3069 -87.3178 114° Southeast 402 463 17,700 -1,980 Descending Chicago Center
10:35AM 40.2581 -87.1661 113° Southeast 383 441 15,600 -1,920 Descending Chicago Center
10:36AM 40.2172 -87.0406 113° Southeast 379 436 13,800 -1,320 Descending Chicago Center
10:37AM 40.1786 -86.9219 113° Southeast 365 420 13,000 -420 Descending Chicago Center
10:38AM 40.1358 -86.8169 118° Southeast 339 390 13,000 -660 Level Chicago Center
10:39AM 40.0831 -86.7147 124° Southeast 337 388 11,700 -1,500 Descending Chicago Center
10:40AM 40.0208 -86.6294 134° Southeast 328 377 10,000 -840 Descending Chicago Center
10:41AM 39.9586 -86.5461 134° Southeast 322 371 10,000 -540 Level Chicago Center
10:42AM 39.8969 -86.4622 134° Southeast 322 371 9,000 -1,380 Descending Chicago Center
10:43AM 39.8264 -86.3667 134° Southeast 312 359 7,200 -1,620 Descending Chicago Center
10:44AM 39.8000 -86.3000 117° Southeast 302 348 6,300 -1,500 Descending Indianapolis TRACON
10:44AM 39.7886 -86.2397 104° East 308 354 5,300 -840 Descending Indianapolis Center
10:45AM 39.7656 -86.1378 106° East 298 343 5,000 -840 Descending Indianapolis Center
10:46AM 39.7428 -86.0414 107° East 287 330 3,700 -1,080 Descending Indianapolis Center
10:48AM 39.7483 -85.9658 85° East 241 277 2,900 -360 Descending Indianapolis Center
10:49AM 39.7833 -85.9206 45° Northeast 206 237 3,000  Climbing Indianapolis Center
10:50AM 39.8244 -85.9453 335° Northwest 180 207 3,000 -300 Level Indianapolis Center
10:51AM 39.8600 -85.9769 326° Northwest 146 168 2,500 -540 Descending Indianapolis Center
10:52AM 39.8839 -85.9983 326° Northwest 121 139 1,900 -540 Descending Indianapolis Center
10:53AM 39.9056 -86.0169 327° Northwest 106 122 1,400 -480 Descending Indianapolis Center
10:54AM 39.9247 -86.0350 324° Northwest 94 108 1,000 -300 Descending Indianapolis Center
10:55AM 39.9433 -86.0525 324° Northwest 92 106 900 -120 Descending Indianapolis Center